User: anonymous
Location: Unspecified
(0.0000°N, 0.0000°E)
Time: 16:52:27
(UTC+02:00)
Language:

Cosmos 2263 Rocket - Orbit

View from above orbital plane
View from above orbital plane
View from above satellite
View from above satellite

Ground track
Ground track

The orbit data is extracted from the following two-line orbital elements,

1 22803U 93059B   14111.15089049 -.00000173  00000-0 -62581-4 0  2548
2 22803 070.9893 158.9697 0018479 334.8062 025.2158 14.16664099 64978
Epoch (UTC): 21 April 2014 03:37:16
Eccentricity: 0.0018479
inclination: 70.9893°
perigee height: 823 km
apogee height: 850 km
right ascension of ascending node: 158.9697°
argument of perigee: 334.8062°
revolutions per day: 14.16664099
mean anomaly at epoch: 25.2158°
orbit number at epoch: 6497

The dashed part of the orbit path shows where the satellite is in the earth's shadow,  

DLR